User: anonymous   Login
Location: *
(2.5500°S, 65.9667°W)
Time: 02:45:44
(UTC+00:00)
Language:

deb Chang Zheng 4 - Orbit

View from above orbital plane
View from above orbital plane
View from above satellite
View from above satellite

Ground track
Ground track

The orbit data is extracted from the following two-line orbital elements,

1 20847U 90081K   22018.56227219  .00007668  00000-0  83909-3 0  9995
2 20847  98.5682  44.3057 0016658  89.4170 270.8953 14.88031649654170
Epoch (UTC): 18 January 2022 13:29:40
Eccentricity: 0.0016658
inclination: 98.5682°
perigee height: 592 km
apogee height: 616 km
right ascension of ascending node: 44.3057°
argument of perigee: 89.4170°
revolutions per day: 14.88031649
mean anomaly at epoch: 270.8953°
orbit number at epoch: 65417

The dashed part of the orbit path shows where the satellite is in the earth's shadow,  

DLR